Regional Weather Roundup
Issued by NWS

Home | Current Version | Previous Version | Text Only | Print | Product List | Glossary On
Versions: 1 2 3 4 5 6 7 8 9 10 11 12 13 14 15 16 17 18 19 20 21 22 23 24 25 26 27 28 29 30 31 32 33 34 35 36 37 38 39 40 41 42 43 44 45 46 47 48 49 50
000
ASPQ40 PGUM 201012
RWRPQ
WEATHER ROUNDUP FOR THE MARIANAS AND MICRONESIA
NATIONAL WEATHER SERVICE TIYAN GU
800 PM CHST MON NOV 20 2017

GUZ001>004-201100-
MARIANA ISLANDS-

CITY           SKY/WX    TMP DP  RH WIND       PRES   REMARKS
GUAM AIRPORT   CLEAR     81  75  83 NE8       29.85R
ANDERSEN AFB   PTCLDY    81  72  74 NE13      29.86R
ROTA AIRPORT   PTCLDY    79  72  78 E9        29.86R
TINIAN AP      PTCLDY    81  72  74 E10       29.84R
SAIPAN AP      MOCLDY    82  73  74 E14       29.86R

$$

PMZ161-201100-
REPUBLIC OF PALAU-

CITY           SKY/WX    TMP DP  RH WIND       PRES   REMARKS
KOROR AP       MOCLDY    81  77  89 E6        29.76R
KOROR WSO      CLOUDY    82  79  89 NE6       29.77R HX  93

$$

PMZ171>174-201100-
FEDERATED STATES OF MICRONESIA-

CITY           SKY/WX    TMP DP  RH WIND       PRES   REMARKS
YAP AIRPORT    MOCLDY    82  77  83 VRB6      29.78R HX  91
CHUUK AP       CLOUDY    84  77  79 NE9       29.76R HX  94
POHNPEI AP     NOT AVBL
POHNPEI WSO    MOCLDY    75  73  94 SE3       29.77R
KOSRAE AP      NOT AVBL

$$

PMZ181-201100-
REPUBLIC OF THE MARSHALL ISLANDS-

CITY           SKY/WX    TMP DP  RH WIND       PRES   REMARKS
KWAJALEIN AP   NOT AVBL
MAJURO AP      MOCLDY    81  75  83 S7        29.83S
MAJURO WSO     MOCLDY    79  75  89 S7        29.82S

$$




USA.gov is the U.S. government's official web portal to all federal, state and local government web resources and services.